Tracking 23752 objects as of 24-Oct-2021
HD Live streaming from Space Station
objects crossing your sky now

SL-14 DEB

Track SL-14 DEB now!
10-day predictions


NORAD ID: 45330
Int'l Code: 1991-056BU
Perigee: 1,074.5 km
Apogee: 1,201.2 km
Inclination: 82.6 °
Period: 107.9 minutes
Semi major axis: 7508 km
RCS: Unknown
Launch date: August 15, 1991
Source: Commonwealth of Independent States (former USSR) (CIS)
Launch site: PLESETSK MISSILE AND SPACE COMPLEX (PKMTR)

Note: This is SATELLITE DEBRIS
aabbcc
Your satellite tracking list
Your tracking list is empty




NASA's NSSDC Master Catalog

Two Line Element Set (TLE):
1 45330U 91056BU  21296.84679306  .00000684  00000-0  13224-2 0  9991
2 45330  82.5655 245.7844 0084349 302.7375  56.5647 13.34261674 80083
Source of the keplerian elements: AFSPC